This is the latest recevied weather packets stored in our database for station/object KO4T-4. If no packets are shown the sender has not sent any weather packets the latest 10 day(s).
| Time | Temp. | Humidity | Pressure | Rain* | Wind** | Luminosity | Snow |
|---|---|---|---|---|---|---|---|
| 1777641604 | 12.78° C | 58% | 1015.9 hPa | 0 mm | - | - | - |
| 1777641304 | 12.78° C | 58% | 1015.9 hPa | 0 mm | - | - | - |
| 1777641003 | 12.78° C | 59% | 1015.9 hPa | 0 mm | - | - | - |
| 1777640703 | 12.22° C | 59% | 1015.9 hPa | 0 mm | - | - | - |
| 1777640404 | 12.22° C | 60% | 1016 hPa | 0 mm | - | - | - |
| 1777640104 | 12.22° C | 58% | 1015.9 hPa | 0 mm | - | - | - |
| 1777639804 | 12.78° C | 57% | 1015.9 hPa | 0 mm | - | - | - |
| 1777639504 | 12.22° C | 59% | 1015.9 hPa | 0 mm | - | - | - |
| 1777639204 | 12.22° C | 61% | 1015.8 hPa | 0 mm | - | - | - |
| 1777638904 | 12.22° C | 61% | 1015.8 hPa | 0 mm | - | - | - |
| 1777638603 | 11.67° C | 63% | 1015.7 hPa | 0 mm | - | - | - |
| 1777638304 | 11.67° C | 63% | 1015.7 hPa | 0 mm | - | - | - |
| 1777638004 | 11.67° C | 64% | 1015.9 hPa | 0 mm | - | - | - |
| 1777637704 | 11.67° C | 65% | 1015.9 hPa | 0 mm | - | - | - |
| 1777637404 | 11.11° C | 66% | 1015.8 hPa | 0 mm | - | - | - |
| 1777637103 | 11.11° C | 66% | 1015.7 hPa | 0 mm | - | - | - |
| 1777636804 | 11.11° C | 67% | 1015.7 hPa | 0 mm | - | - | - |
| 1777636504 | 11.11° C | 67% | 1015.6 hPa | 0 mm | - | - | - |
| 1777636203 | 11.11° C | 68% | 1015.5 hPa | 0 mm | - | - | - |
| 1777635904 | 11.11° C | 68% | 1015.6 hPa | 0 mm | - | - | - |
| 1777635604 | 10.56° C | 69% | 1015.4 hPa | 0 mm | - | - | - |
| 1777635304 | 10.56° C | 70% | 1015.5 hPa | 0 mm | - | - | - |
| 1777635004 | 10.56° C | 68% | 1015.5 hPa | 0 mm | - | - | - |
| 1777634704 | 10.56° C | 69% | 1015.5 hPa | 0 mm | - | - | - |
| 1777634404 | 10.56° C | 69% | 1015.4 hPa | 0 mm | - | - | - |
* Rain latest hour (hover to see other rain measurements)
** Current wind speed in m/s (hover to see current wind gust speed)